Погода в Михейкове

Россия / Смоленская область     55°05′13″N   32°40′31″E
темп.,
°C
ветер,
м/с
пор.,
м/с
влажн.,
%
обл.,
%
осадки,
мм/ч
давл.,
гПа
погр.,
м
16 января, вс
вс1600:00−2сз61289100 0.1 1010951
03:00−3сз51192100 0.2 1012883
06:00−3сз4118869 0.1 1012652
09:00−4сз4983100 0.1 1014728
12:00−4зсз368653 0.0 1014619
15:00−5зюз38918 0.0 1013411
18:00−5юз3119572 0.0 1012360
21:00−6юз4149411 0.0 1009365
17 января, пн
пн1700:00−6юз51592100 0.0 1005453
03:00−4юз61695100 0.2 1000695
06:00−3юз61594100 1.9 994810
09:00−2юз61595100 2.6 990819
12:00−1юз71696100 1.0 986907
15:000юз71697100 2.4 9821248
18:00−2з51186100 1.2 984914
21:00−4з4128992 1.2 986645
18 января, вт
вт1800:00−6юз41096100 0.3 987442
03:00−6ссз81892100 2.5 9911280
06:00−7ссз81791100 2.3 9961190
09:00−8ссз81786100 3.7 10021069
12:00−8ссз71585100 0.1 10071058
15:00−7ссз71586100 0.1 1010936
18:00−8ссз61487100 0.0 1014801
21:00−9ссз61488100 0.1 1017663
19 января, ср
ср1900:00−10ссз4139087 0.0 1019493
03:00−12сз4119464 0.0 1021292
06:00−15сз2799100 0.0 1021114
09:00−18з11100100 0.0 102211
12:00−9зюз239152 0.0 1020146
15:00−7ююз259347 0.0 1017216
18:00−8ю3897100 0.1 1017159
21:00−7ююз3997100 0.2 1015232
20 января, чт
чт2000:00−6ю4996100 0.1 1013292
03:00−4ююз41194100 0.3 1012410
06:00−4ю41295100 0.1 1010418
09:00−4ю51395100 0.3 1009490
12:00−3ю51393100 0.2 1009617
15:00−3ю51495100 0.6 1007637
18:00−3ю51492100 0.6 1006712
21:00−3ю61392100 0.8 1004739